Regional Weather Roundup
Issued by NWS

Home | Current Version | Previous Version | Text Only | Print | Product List | Glossary Off
Versions: 1 2 3 4 5 6 7 8 9 10 11 12 13 14 15 16 17 18 19 20 21 22 23 24 25 26 27 28 29 30 31 32 33 34 35 36 37 38 39 40 41 42 43 44 45 46 47 48 49 50

000
ASUS43 KDTX 251810
RWRMI
MICHIGAN HOURLY REGIONAL WEATHER ROUNDUP
NATIONAL WEATHER SERVICE DETROIT/PONTIAC MI
200 PM EDT TUE APR 25 2017

NOTE: "FAIR" INDICATES FEW OR NO CLOUDS BELOW 12,000 FEET WITH NO
SIGNIFICANT WEATHER AND/OR OBSTRUCTION TO VISIBILITY.

MIZ047>049-052>055-059>063-066>070-074>076-081>083-251900-
SOUTHEAST LOWER MICHIGAN

CITY           SKY/WX    TMP DP  RH WIND       PRES   REMARKS
ADRIAN         SUNNY     66  54  65 S9        29.79F
6HR MIN TEMP:  51; 6HR MAX TEMP:  66;

ALMA           PTSUNNY   67  53  62 S9G18     29.78F
6HR MIN TEMP:  50; 6HR MAX TEMP:  67;

ANN ARBOR      MOSUNNY   66  53  63 SE12      29.79F
BAD AXE        CLOUDY    60  52  74 S15       29.82F
6HR MIN TEMP:  46; 6HR MAX TEMP:  60;

CARO           MOSUNNY   65  53  63 SE9       29.78F
DETROIT CITY   CLOUDY    62  52  69 SE9       29.82F
6HR MIN TEMP:  52; 6HR MAX TEMP:  63; 6HR PCP: TRACE;

DETROIT        PTSUNNY   66  52  60 E13G18    29.81F
6HR MIN TEMP:  53; 6HR MAX TEMP:  66;

FLINT          PTSUNNY   65  52  62 SE10      29.78F
6HR MIN TEMP:  52; 6HR MAX TEMP:  65;

GROSSE ILE     SUNNY     62  52  69 S6        29.81F
6HR MIN TEMP:  52; 6HR MAX TEMP:  63;

HILLSDALE      SUNNY     66  52  59 S9G18     29.77F
HOWELL         CLOUDY    64  49  60 SE13      29.79F
6HR MIN TEMP:  52; 6HR MAX TEMP:  65;


CITY           SKY/WX    TMP DP  RH WIND       PRES   REMARKS
JACKSON        SUNNY     68  53  58 SE14G22   29.77F
6HR MIN TEMP:  53; 6HR MAX TEMP:  68;

LAMBERTVILLE   SUNNY     66  55  67 SE8       29.78F
6HR MIN TEMP:  53; 6HR MAX TEMP:  66;

LANSING        CLOUDY    69  52  54 SE15      29.77F
6HR MIN TEMP:  54; 6HR MAX TEMP:  69;

LAPEER         PTSUNNY   62  51  67 SE13G18   29.80F
6HR MIN TEMP:  50; 6HR MAX TEMP:  62;

MASON          MOSUNNY   67  54  62 SE9G16    29.78F
MONROE         MOSUNNY   62  50  66 SE12G18   29.80F
6HR MIN TEMP:  53; 6HR MAX TEMP:  62;

MT. CLEMENS    MOSUNNY   60  53  78 SE14      29.82F
6HR MIN TEMP:  51; 6HR MAX TEMP:  60; 6HR PCP:  0.01;

PONTIAC        MOSUNNY   64  52  64 SE15      29.78F
6HR MIN TEMP:  50; 6HR MAX TEMP:  64;

PORT HOPE        N/A     51  48  89 SE12      29.82F
6HR MIN TEMP:  46; 6HR MAX TEMP:  51; 6HR PCP:  0.01;

PORT HURON     MOSUNNY   63  50  63 S9G18     29.84F
TRI CITIES     MOSUNNY   66  51  58 S12       29.79F
6HR MIN TEMP:  50; 6HR MAX TEMP:  66;

MIDLAND        CLOUDY    65  48  52 S6        29.79S
6HR MIN TEMP:  50; 6HR MAX TEMP:  65;

TROY           SUNNY     64  48  55 E7        29.82F
SAGINAW HB     PTSUNNY   68  48  49 SE9       29.77F
$$
MIZ043>046-050>051-056>058-064>065-071>073-077>080-251900-
SOUTHWEST LOWER MICHIGAN

CITY           SKY/WX    TMP DP  RH WIND       PRES   REMARKS
BATTLE CREEK   MOSUNNY   68  55  63 SE10      29.75F
6HR MIN TEMP:  54; 6HR MAX TEMP:  68;

BENTON HARBOR  PTSUNNY   73  53  49 S12       29.71F
6HR MIN TEMP:  55; 6HR MAX TEMP:  73;

BIG RAPIDS     PTSUNNY   66  49  54 S6        29.75F
6HR MIN TEMP:  46; 6HR MAX TEMP:  67;

COLDWATER      PTSUNNY   67  54  61 S12G20    29.76F
6HR MIN TEMP:  52; 6HR MAX TEMP:  67;

FREMONT        PTSUNNY   71  49  46 SE9       29.73F
HOLLAND        MOSUNNY   71  54  54 SE6       29.72F
6HR MIN TEMP:  54; 6HR MAX TEMP:  72;

GRAND RAPIDS   PTSUNNY   69  54  58 SE6       29.74F
6HR MIN TEMP:  51; 6HR MAX TEMP:  70;

IONIA          PTSUNNY   69  52  53 S15       29.75F
6HR MIN TEMP:  49; 6HR MAX TEMP:  70;

KALAMAZOO      SUNNY     69  51  52 VRB7      29.75F
6HR MIN TEMP:  55; 6HR MAX TEMP:  70;

LUDINGTON      SUNNY     68  54  61 SW15      29.70F
6HR MIN TEMP:  54; 6HR MAX TEMP:  69;

MARSHALL       PTSUNNY   69  53  58 S7G17     29.75F
6HR MIN TEMP:  54; 6HR MAX TEMP:  69;

MOUNT PLEASANT PTSUNNY   66  49  55 SE9G18    29.77F
6HR MIN TEMP:  48; 6HR MAX TEMP:  66;

MUSKEGON       PTSUNNY   72  53  51 S12       29.72F
6HR MIN TEMP:  54; 6HR MAX TEMP:  74;

SOUTH HAVEN    MOSUNNY   71  53  54 S8        29.72F
$$
MIZ016>042-251900-
NORTHERN LOWER MICHIGAN

CITY           SKY/WX    TMP DP  RH WIND       PRES   REMARKS
ALPENA         CLOUDY    54  46  74 E12       29.82F
6HR MIN TEMP:  43; 6HR MAX TEMP:  58;

BEAVER ISLAND  SUNNY     56  41  56 E9        29.76S
BELLAIRE       PTSUNNY   70  46  42 S9G17     29.73F
6HR MIN TEMP:  53; 6HR MAX TEMP:  70;

CADILLAC       MOSUNNY   67  50  53 SE10G18   29.74F
CHARLEVOIX     PTSUNNY   54  44  67 NW9       29.77R
6HR MIN TEMP:  53; 6HR MAX TEMP:  70;

FRANKFORT      SUNNY     69  50  50 W8        29.71S
GAYLORD        MOSUNNY   67  46  47 S14       29.76S
6HR MIN TEMP:  45; 6HR MAX TEMP:  67;

GRAYLING       MOSUNNY   65  48  52 SE10G18   29.78S
HARBOR SPRINGS CLOUDY    67  48  50 S3        29.73F
HOUGHTON LAKE  SUNNY     65  48  54 SE12G18   29.77F
6HR MIN TEMP:  48; 6HR MAX TEMP:  65;

MANISTEE       PTSUNNY   74  53  48 S12G17    29.69F
OSCODA         CLOUDY    55  45  70 SE8       29.82F
6HR MIN TEMP:  47; 6HR MAX TEMP:  57;

PELLSTON       PTSUNNY   68  46  45 S12       29.75F
6HR MIN TEMP:  45; 6HR MAX TEMP:  69;

ROGERS CITY    PTSUNNY   61  46  57 SE15G21   29.78F
TRAVERSE CITY  MOSUNNY   72  48  42 S12G18    29.70F
6HR MIN TEMP:  53; 6HR MAX TEMP:  72;

$$
MIZ007>008-015-251900-
EASTERN UPPER MICHIGAN

CITY           SKY/WX    TMP DP  RH WIND       PRES   REMARKS
KINROSS        CLOUDY    52  39  61 E17       29.80F
6HR MIN TEMP:  41; 6HR MAX TEMP:  53;

MACKINAC ISLAN CLOUDY    42  37  84 E17G24    29.79F
6HR MIN TEMP:  38; 6HR MAX TEMP:  45; 6HR PCP:  0.11;

NEWBERRY       MOSUNNY   63  45  51 SE9       29.75S
6HR MIN TEMP:  43; 6HR MAX TEMP:  63;

S. S. MARIE    CLOUDY    53  39  59 SE17G28   29.81F
6HR MIN TEMP:  45; 6HR MAX TEMP:  53;

MUNISING         N/A     65  46  50 S14G23    29.70R
$$
MIZ004>006-011>014-085-251900-
CENTRAL UPPER MICHIGAN

CITY           SKY/WX    TMP DP  RH WIND       PRES   REMARKS
MANISTIQUE     CLOUDY    53  41  64 E14       29.75S
6HR MIN TEMP:  45; 6HR MAX TEMP:  57;

ESCANABA       SUNNY     56  45  66 SE13      29.71F
6HR MIN TEMP:  47; 6HR MAX TEMP:  57;

MENOMINEE      SUNNY     61  49  64 S13       29.67F
6HR MIN TEMP:  49; 6HR MAX TEMP:  62;

SAWYER-GWINN   PTSUNNY   61  46  59 SE12G17   29.68F
$$
MIZ001>003-009>011-084-251900-
WESTERN UPPER MICHIGAN

CITY           SKY/WX    TMP DP  RH WIND       PRES   REMARKS
IRON MOUNTAIN  PTSUNNY   69  41  36 SE14G21   29.64F
6HR MIN TEMP:  45; 6HR MAX TEMP:  69;

HOUGHTON       MOSUNNY   61  39  44 E5        29.62F
6HR MIN TEMP:  42; 6HR MAX TEMP:  61;

COPPER HARBOR    N/A     53  41  63 VRB5      29.65R
6HR MIN TEMP:  46; 6HR MAX TEMP:  54;

IRONWOOD       CLOUDY    69  39  33 CALM      29.58F
6HR MIN TEMP:  54; 6HR MAX TEMP:  70;

$$

ABBREVIATIONS USED IN REMARKS
   TC - TEMPERATURE IN CELSIUS
  WCI - WIND CHILL INDEX
   HX - HEAT INDEX
  VSB - VISIBILITY





USA.gov is the U.S. government's official web portal to all federal, state and local government web resources and services.